When you browse on this site, cookies collect data to enhance your experience and personalize the content and advertising you see.
Visit our Privacy Policy to learn more. By continuing to use the site, you agree to this use of cookies and data.
  • In Romania
  • List of Countries
  • For 7 days
  • Water Temperature
  • Satellite Maps
  • Weather Map
  • Weather Widgets
  • user-avatar
    Login

    Hourly Weather Gumla

    Today, 17 February, Sunday

    Time Temperature Precipitation Wind Pressure Humidity
    00:00 +18°C° 0 mm 2 mps 705 mmHg 67%
    01:00 +18°C° 0 mm 2 mps 705 mmHg 68%
    02:00 +17°C° 0 mm 2 mps 705 mmHg 70%
    03:00 +17°C° 0 mm 2 mps 705 mmHg 72%
    04:00 +16°C° 0 mm 2 mps 705 mmHg 70%
    05:00 +16°C° 0 mm 2 mps 705 mmHg 69%
    06:00 +15°C° 0 mm 2 mps 704 mmHg 72%
    07:00 +17°C° 0 mm 2 mps 705 mmHg 64%
    08:00 +18°C° 0 mm 3 mps 706 mmHg 56%
    09:00 +19°C° 0 mm 3 mps 706 mmHg 47%
    10:00 +21°C° 0 mm 4 mps 706 mmHg 42%
    11:00 +25°C° 0 mm 5 mps 706 mmHg 36%
    12:00 +27°C° 0 mm 6 mps 707 mmHg 26%
    13:00 +27°C° 0 mm 6 mps 706 mmHg 24%
    14:00 +27°C° 0 mm 6 mps 705 mmHg 22%
    15:00 +27°C° 0 mm 6 mps 705 mmHg 20%
    16:00 +26°C° 0 mm 5 mps 704 mmHg 23%
    17:00 +25°C° 0 mm 4 mps 704 mmHg 26%
    18:00 +22°C° 0 mm 3 mps 704 mmHg 29%
    19:00 +21°C° 0 mm 3 mps 704 mmHg 31%
    20:00 +19°C° 0 mm 2 mps 704 mmHg 34%
    21:00 +18°C° 0 mm 2 mps 704 mmHg 36%
    22:00 +17°C° 0 mm 2 mps 704 mmHg 38%
    23:00 +17°C° 0 mm 2 mps 704 mmHg 39%

    Tomorrow, 18 February, Monday

    Time Temperature Precipitation Wind Pressure Humidity
    00:00 +16°C° 0 mm 2 mps 704 mmHg 40%
    01:00 +16°C° 0 mm 2 mps 704 mmHg 41%
    02:00 +15°C° 0 mm 2 mps 704 mmHg 42%
    03:00 +15°C° 0 mm 2 mps 703 mmHg 43%
    04:00 +15°C° 0 mm 2 mps 703 mmHg 44%
    05:00 +14°C° 0 mm 1 mps 704 mmHg 45%
    06:00 +14°C° 0 mm 1 mps 704 mmHg 46%
    07:00 +16°C° 0 mm 1 mps 704 mmHg 43%
    08:00 +18°C° 0 mm 1 mps 705 mmHg 39%
    09:00 +20°C° 0 mm 1 mps 706 mmHg 36%
    10:00 +22°C° 0 mm 1 mps 706 mmHg 32%
    11:00 +24°C° 0 mm 1 mps 706 mmHg 27%
    12:00 +26°C° 0 mm 2 mps 706 mmHg 23%
    13:00 +27°C° 0 mm 2 mps 705 mmHg 22%
    14:00 +28°C° 0 mm 2 mps 705 mmHg 21%
    15:00 +29°C° 0 mm 3 mps 704 mmHg 20%
    16:00 +28°C° 0 mm 3 mps 704 mmHg 24%
    17:00 +26°C° 0 mm 3 mps 704 mmHg 28%
    18:00 +25°C° 0 mm 3 mps 704 mmHg 32%
    19:00 +24°C° 0 mm 2 mps 704 mmHg 34%
    20:00 +23°C° 0 mm 2 mps 704 mmHg 36%
    21:00 +21°C° 0 mm 1 mps 705 mmHg 39%
    22:00 +21°C° 0 mm 1 mps 705 mmHg 39%
    23:00 +20°C° 0 mm 1 mps 705 mmHg 40%

    Day after tomorrow, 19 February, Tuesday

    Time Temperature Precipitation Wind Pressure Humidity
    00:00 +20°C° 0 mm 1 mps 705 mmHg 41%
    01:00 +19°C° 0 mm 1 mps 704 mmHg 41%
    02:00 +19°C° 0 mm 1 mps 704 mmHg 41%
    03:00 +19°C° 0 mm 1 mps 704 mmHg 42%
    04:00 +19°C° 0 mm 1 mps 704 mmHg 42%
    05:00 +18°C° 0 mm 1 mps 704 mmHg 42%
    06:00 +18°C° 0 mm 1 mps 705 mmHg 42%
    07:00 +20°C° 0 mm 1 mps 706 mmHg 40%
    08:00 +21°C° 0 mm 1 mps 707 mmHg 37%
    09:00 +23°C° 0 mm 1 mps 708 mmHg 34%
    10:00 +25°C° 0 mm 1 mps 708 mmHg 31%
    11:00 +27°C° 0 mm 1 mps 708 mmHg 28%
    12:00 +27°C° 0 mm 0 mps 708 mmHg 25%
    13:00 +30°C° 0 mm 1 mps 707 mmHg 24%
    14:00 +30°C° 0 mm 1 mps 707 mmHg 23%
    15:00 +31°C° 0 mm 2 mps 706 mmHg 22%
    16:00 +30°C° 0 mm 2 mps 706 mmHg 24%
    17:00 +29°C° 0 mm 1 mps 706 mmHg 26%
    18:00 +28°C° 0 mm 1 mps 706 mmHg 29%
    19:00 +27°C° 0 mm 1 mps 706 mmHg 31%
    20:00 +25°C° 0 mm 1 mps 707 mmHg 33%
    21:00 +24°C° 0 mm 1 mps 707 mmHg 36%
    22:00 +23°C° 0 mm 1 mps 707 mmHg 37%
    23:00 +23°C° 0 mm 1 mps 707 mmHg 38%

    20 February, Wednesday

    Time Temperature Precipitation Wind Pressure Humidity
    00:00 +22°C° 0 mm 1 mps 707 mmHg 40%
    01:00 +22°C° 0 mm 1 mps 707 mmHg 41%
    02:00 +19°C° 0 mm 0 mps 707 mmHg 42%
    03:00 +19°C° 0 mm 0 mps 706 mmHg 42%
    04:00 +18°C° 0 mm 0 mps 706 mmHg 43%
    05:00 +18°C° 0 mm 0 mps 706 mmHg 45%
    06:00 +18°C° 0 mm 0 mps 706 mmHg 46%
    07:00 +19°C° 0 mm 0 mps 707 mmHg 43%
    08:00 +21°C° 0 mm 0 mps 708 mmHg 39%
    09:00 +23°C° 0 mm 0 mps 709 mmHg 36%
    10:00 +27°C° 0 mm 1 mps 709 mmHg 32%
    11:00 +29°C° 0 mm 2 mps 709 mmHg 27%
    12:00 +31°C° 0 mm 2 mps 709 mmHg 22%
    13:00 +33°C° 0 mm 3 mps 708 mmHg 20%
    14:00 +33°C° 0 mm 3 mps 708 mmHg 18%
    15:00 +34°C° 0 mm 3 mps 707 mmHg 17%
    16:00 +33°C° 0 mm 4 mps 707 mmHg 20%
    17:00 +30°C° 0 mm 4 mps 707 mmHg 24%
    18:00 +29°C° 0 mm 4 mps 707 mmHg 28%
    19:00 +27°C° 0 mm 4 mps 708 mmHg 32%
    20:00 +26°C° 0 mm 4 mps 708 mmHg 36%
    21:00 +23°C° 0 mm 4 mps 709 mmHg 40%
    22:00 +24°C° 0 mm 3 mps 709 mmHg 43%
    23:00 +22°C° 0 mm 3 mps 709 mmHg 46%

    21 February, Thursday

    Time Temperature Precipitation Wind Pressure Humidity
    00:00 +21°C° 0 mm 2 mps 709 mmHg 49%
    01:00 +21°C° 0 mm 2 mps 709 mmHg 50%
    02:00 +20°C° 0 mm 2 mps 708 mmHg 50%
    03:00 +21°C° 0 mm 1 mps 708 mmHg 51%
    04:00 +21°C° 0 mm 1 mps 708 mmHg 51%
    05:00 +21°C° 0 mm 1 mps 708 mmHg 51%
    06:00 +18°C° 0 mm 0 mps 708 mmHg 51%
    07:00 +20°C° 0 mm 0 mps 709 mmHg 46%
    08:00 +24°C° 0 mm 1 mps 710 mmHg 42%
    09:00 +26°C° 0 mm 1 mps 710 mmHg 37%
    10:00 +28°C° 0 mm 1 mps 710 mmHg 33%
    11:00 +30°C° 0 mm 1 mps 710 mmHg 28%
    12:00 +32°C° 0 mm 1 mps 710 mmHg 24%
    13:00 +34°C° 0 mm 2 mps 709 mmHg 22%
    14:00 +35°C° 0 mm 2 mps 709 mmHg 20%
    15:00 +36°C° 0 mm 3 mps 708 mmHg 18%
    16:00 +34°C° 0 mm 3 mps 708 mmHg 21%
    17:00 +33°C° 0 mm 3 mps 707 mmHg 24%
    18:00 +31°C° 0 mm 3 mps 707 mmHg 27%
    19:00 +29°C° 0 mm 3 mps 707 mmHg 30%
    20:00 +27°C° 0 mm 2 mps 708 mmHg 34%
    21:00 +26°C° 0 mm 2 mps 708 mmHg 37%
    22:00 +25°C° 0 mm 1 mps 708 mmHg 38%
    23:00 +25°C° 0 mm 1 mps 707 mmHg 40%

    22 February, Friday

    Time Temperature Precipitation Wind Pressure Humidity
    00:00 +22°C° 0 mm 0 mps 707 mmHg 41%
    01:00 +22°C° 0 mm 0 mps 707 mmHg 41%
    02:00 +22°C° 0 mm 0 mps 706 mmHg 41%
    03:00 +23°C° 0 mm 1 mps 706 mmHg 42%
    04:00 +23°C° 0 mm 1 mps 706 mmHg 42%
    05:00 +23°C° 0 mm 1 mps 706 mmHg 42%
    06:00 +23°C° 0 mm 1 mps 706 mmHg 42%
    07:00 +24°C° 0 mm 1 mps 707 mmHg 39%
    08:00 +24°C° 0 mm 0 mps 708 mmHg 36%
    09:00 +26°C° 0 mm 0 mps 708 mmHg 33%
    10:00 +28°C° 0 mm 0 mps 708 mmHg 30%
    11:00 +32°C° 0 mm 1 mps 708 mmHg 28%
    12:00 +34°C° 0 mm 1 mps 708 mmHg 25%
    13:00 +35°C° 0 mm 2 mps 707 mmHg 24%
    14:00 +35°C° 0 mm 3 mps 706 mmHg 23%
    15:00 +36°C° 0 mm 3 mps 706 mmHg 22%
    16:00 +34°C° 0 mm 3 mps 705 mmHg 25%
    17:00 +33°C° 0 mm 3 mps 705 mmHg 28%
    18:00 +31°C° 0 mm 2 mps 705 mmHg 30%
    19:00 +30°C° 0 mm 2 mps 705 mmHg 33%
    20:00 +29°C° 0 mm 2 mps 706 mmHg 35%
    21:00 +27°C° 0 mm 1 mps 706 mmHg 38%
    22:00 +27°C° 0 mm 1 mps 706 mmHg 39%
    23:00 +27°C° 0 mm 1 mps 706 mmHg 40%
    Show more